TimeCDT,TemperatureF,Dew PointF,Humidity,Sea Level PressureIn,VisibilityMPH,Wind Direction,Wind SpeedMPH,Gust SpeedMPH,PrecipitationIn,Events,Conditions,WindDirDegrees,DateUTC
12:56 AM,39.9,39.0,97,29.36,10.0,West,11.5,-,0.01,Rain,Light Rain,270,2013-11-01 05:56:00
1:56 AM,41.0,39.0,93,29.37,10.0,West,10.4,-,0.02,,Overcast,280,2013-11-01 06:56:00
2:56 AM,41.0,39.9,96,29.39,10.0,West,10.4,-,0.00,Rain,Light Rain,270,2013-11-01 07:56:00
3:23 AM,41.0,39.2,93,29.38,10.0,West,9.2,-,0.00,,Overcast,280,2013-11-01 08:23:00
3:56 AM,41.0,39.9,96,29.42,10.0,West,11.5,-,0.00,,Overcast,280,2013-11-01 08:56:00
4:56 AM,42.1,41.0,96,29.44,10.0,West,6.9,-,N/A,,Overcast,280,2013-11-01 09:56:00
5:30 AM,42.8,39.2,87,29.44,10.0,WNW,12.7,-,N/A,,Overcast,290,2013-11-01 10:30:00
5:56 AM,42.1,39.9,92,29.46,10.0,WNW,5.8,-,N/A,,Overcast,290,2013-11-01 10:56:00
6:56 AM,42.1,39.9,92,29.49,10.0,West,4.6,-,N/A,,Overcast,280,2013-11-01 11:56:00
7:56 AM,42.1,39.0,89,29.51,10.0,WNW,10.4,-,N/A,,Overcast,300,2013-11-01 12:56:00
8:39 AM,42.8,39.2,87,29.51,10.0,WNW,8.1,-,N/A,,Overcast,300,2013-11-01 13:39:00
8:47 AM,42.8,39.2,87,29.51,10.0,WNW,8.1,-,N/A,,Overcast,300,2013-11-01 13:47:00
8:56 AM,42.1,39.0,89,29.54,10.0,NW,6.9,-,N/A,,Overcast,310,2013-11-01 13:56:00
9:56 AM,43.0,39.0,86,29.56,10.0,West,8.1,-,N/A,,Overcast,280,2013-11-01 14:56:00
10:29 AM,42.8,39.2,87,29.54,10.0,West,8.1,-,N/A,,Overcast,270,2013-11-01 15:29:00
10:56 AM,43.0,39.0,86,29.57,10.0,West,8.1,-,N/A,,Overcast,270,2013-11-01 15:56:00
11:56 AM,43.0,39.0,86,29.59,9.0,West,6.9,-,N/A,,Overcast,280,2013-11-01 16:56:00
12:23 PM,44.6,39.2,81,29.58,9.0,West,8.1,-,N/A,,Overcast,280,2013-11-01 17:23:00
12:56 PM,44.1,39.0,82,29.60,9.0,West,8.1,-,N/A,,Overcast,280,2013-11-01 17:56:00
1:05 PM,42.8,39.2,87,29.58,8.0,West,10.4,-,N/A,,Overcast,260,2013-11-01 18:05:00
1:56 PM,43.0,39.0,86,29.62,8.0,West,8.1,-,N/A,,Overcast,280,2013-11-01 18:56:00
2:56 PM,45.0,39.0,80,29.63,9.0,West,9.2,-,N/A,,Overcast,270,2013-11-01 19:56:00
3:03 PM,44.6,39.2,81,29.62,9.0,WSW,10.4,-,N/A,,Mostly Cloudy,250,2013-11-01 20:03:00
3:56 PM,45.0,37.0,74,29.65,10.0,West,10.4,-,N/A,,Mostly Cloudy,270,2013-11-01 20:56:00
4:03 PM,44.6,37.4,76,29.64,10.0,West,12.7,-,N/A,,Overcast,270,2013-11-01 21:03:00
4:56 PM,44.1,36.0,73,29.68,10.0,West,5.8,-,N/A,,Overcast,280,2013-11-01 21:56:00
5:56 PM,44.1,36.0,73,29.70,10.0,WNW,3.5,-,N/A,,Overcast,290,2013-11-01 22:56:00
6:56 PM,43.0,36.0,76,29.73,10.0,NW,12.7,18.4,N/A,,Mostly Cloudy,320,2013-11-01 23:56:00
7:31 PM,41.0,35.6,81,29.73,10.0,North,8.1,-,N/A,,Overcast,360,2013-11-02 00:31:00
7:46 PM,41.0,35.6,81,29.74,10.0,North,8.1,-,N/A,,Overcast,360,2013-11-02 00:46:00
7:56 PM,39.9,34.0,79,29.76,10.0,North,8.1,-,N/A,,Overcast,350,2013-11-02 00:56:00
8:56 PM,39.0,34.0,82,29.78,10.0,NNW,4.6,-,N/A,,Overcast,330,2013-11-02 01:56:00
9:25 PM,39.2,33.8,81,29.77,10.0,NNW,5.8,-,N/A,,Overcast,330,2013-11-02 02:25:00
9:56 PM,39.9,33.1,77,29.80,10.0,NNW,8.1,-,N/A,,Overcast,330,2013-11-02 02:56:00
10:30 PM,39.2,33.8,81,29.79,10.0,NNW,9.2,-,N/A,,Overcast,340,2013-11-02 03:30:00
10:56 PM,39.9,33.1,77,29.81,10.0,NNW,5.8,-,N/A,,Overcast,340,2013-11-02 03:56:00
11:56 PM,39.0,33.1,79,29.83,10.0,NW,3.5,-,N/A,,Overcast,320,2013-11-02 04:56:00